• Join FlightAware (Why Join?)
  • Login
  • US Flag GB Flag 
19:51 EDT


 

Airport Tracker/Info


-or-


 

Live Flight TrackerFlight Track Log ✈ SWA1377 ✈ 21-Apr-2013 ✈ KMDW - KBUF

Flight Track Log - Related Links

Times and Time Zones

All times are in EDT time to prevent confusion due to time zone crossing. See the SWA1377 flight status page for this flight to view local times or setup timezone preferences in your user account.

Time Position Orientation Groundspeed Altitude Reporting Facility
EDT Latitude Longitude Course Direction KTS MPH feet Rate Location/Type
10:21 41.7833 -87.5969 79° East 237 273 5,000  Level Chicago Center
10:22 41.7897 -87.5003 85° East 251 289 5,400 1,680 Climbing Chicago Center
10:23 41.7822 -87.3953 95° East 277 319 8,500 3,360 Climbing Chicago Center
10:24 41.7753 -87.2831 95° East 297 342 12,400 3,540 Climbing Chicago Center
10:25 41.7683 -87.1617 94° East 322 371 15,800 3,180 Climbing Chicago Center
10:26 41.7617 -87.0256 94° East 361 415 19,000 3,180 Climbing Chicago Center
10:27 41.7636 -86.8803 89° East 387 445 22,400 3,300 Climbing Chicago Center
10:28 41.7753 -86.6994 85° East 406 467 25,900 2,820 Climbing Chicago Center
10:29 41.7942 -86.5622 79° East 428 493 28,200 2,460 Climbing Chicago Center
10:30 41.8194 -86.3644 80° East 447 514 31,000 2,460 Climbing Chicago Center
10:31 41.8403 -86.1981 80° East 451 519 33,400 1,920 Climbing Chicago Center
10:32 41.8614 -86.0303 80° East 453 521 35,000 780 Climbing Chicago Center
10:33 41.8819 -85.8639 81° East 451 519 35,000  Level Chicago Center
10:34 41.9019 -85.6983 81° East 447 514 35,000  Level Chicago Center
10:35 41.9228 -85.5306 80° East 451 519 35,000  Level Chicago Center
10:36 41.9436 -85.3619 81° East 453 521 35,000  Level Chicago Center
10:37 41.9600 -85.2219 81° East 444 511 35,000  Level Cleveland Center
10:38 41.9792 -85.0556 81° East 444 511 35,000  Level Cleveland Center
10:39 42.0000 -84.8867 81° East 444 511 35,000  Level Cleveland Center
10:40 42.0189 -84.7172 81° East 444 511 35,000  Level Cleveland Center
10:41 42.0372 -84.5478 82° East 449 517 35,000  Level Cleveland Center
10:42 42.0556 -84.3839 81° East 449 517 35,000  Level Cleveland Center
10:43 42.0719 -84.1947 83° East 449 517 35,000  Level Cleveland Center
10:44 42.0875 -84.0278 83° East 449 517 35,000  Level Cleveland Center
10:45 42.1069 -83.8581 81° East 449 517 35,000  Level Cleveland Center
10:46 42.1242 -83.6908 82° East 449 517 35,000  Level Cleveland Center
10:47 42.1392 -83.5208 83° East 449 517 35,000  Level Cleveland Center
10:48 42.1558 -83.3506 82° East 456 525 35,000  Level Cleveland Center
10:49 42.1719 -83.1944 82° East 456 525 35,000  Level Cleveland Center
10:50 42.1883 -83.0269 82° East 456 525 35,000  Level Cleveland Center
10:51 42.2064 -82.8594 82° East 456 525 35,000 -540 Level Cleveland Center
10:52 42.2219 -82.6889 83° East 456 525 34,000 -960 Descending Cleveland Center
10:53 42.2375 -82.5183 83° East 456 525 33,100 -540 Descending Cleveland Center
10:54 42.2531 -82.3364 83° East 472 543 33,000 -60 Descending Cleveland Center
10:55 42.2700 -82.1600 83° East 472 543 33,000  Level Cleveland Center
10:56 42.2872 -81.9697 83° East 478 550 33,000 -300 Level Cleveland Center
10:57 42.3039 -81.7875 83° East 478 550 32,400 -840 Descending Cleveland Center
10:58 42.3181 -81.6081 84° East 478 550 31,400 -1,020 Descending Cleveland Center
10:59 42.3319 -81.4397 84° East 472 543 30,400 -1,080 Descending Cleveland Center
11:00 42.3456 -81.2686 84° East 462 532 29,300 -1,080 Descending Cleveland Center
11:01 42.3589 -81.1031 84° East 462 532 28,300 -1,020 Descending Cleveland Center
11:02 42.3722 -80.9400 84° East 450 518 27,300 -660 Descending Cleveland Center
11:03 42.3850 -80.7714 84° East 443 510 27,000 -180 Descending Cleveland Center
11:04 42.3978 -80.6311 83° East 443 510 27,000 -660 Level Cleveland Center
11:05 42.4081 -80.4708 85° East 438 504 25,700 -2,040 Descending Cleveland Center
11:06 42.4203 -80.3161 84° East 429 494 23,000 -2,280 Descending Cleveland Center
11:07 42.4283 -80.1669 86° East 400 460 21,200 -1,800 Descending Cleveland Center
11:08 42.4400 -80.0261 84° East 379 436 19,400 -1,740 Descending Cleveland Center
11:09 42.4478 -79.8911 85° East 374 430 17,800 -1,800 Descending Cleveland Center
11:10 42.4633 -79.7389 82° East 364 419 15,900 -2,100 Descending Cleveland Center
11:11 42.4728 -79.6092 84° East 356 410 13,700 -1,860 Descending Cleveland Center
11:12 42.5114 -79.4989 65° Northeast 323 372 12,200 -1,380 Descending Cleveland Center
11:13 42.5625 -79.4078 53° Northeast 307 353 11,000 -1,140 Descending Cleveland Center
11:14 42.6033 -79.3281 55° Northeast 290 334 10,000 -1,500 Descending Cleveland Center
11:15 42.6419 -79.2311 62° Northeast 275 316 8,000 -1,740 Descending Cleveland Center
11:16 42.6783 -79.1458 60° Northeast 262 302 6,600 -1,500 Descending Cleveland Center
11:17 42.7108 -79.0714 59° Northeast 255 293 5,000 -1,320 Descending Cleveland Center
11:18 42.7472 -78.9886 59° Northeast 250 288 4,000 -540 Descending Cleveland Center
11:19 42.7903 -78.9308 45° Northeast 209 241 4,000 -120 Level Cleveland Center
11:20 42.8269 -78.8819 44° Northeast 189 217 3,800 -720 Descending Cleveland Center
11:22 42.8833 -78.8000 47° Northeast 124 143 1,900 -840 Descending Buffalo TRACON
11:23 42.9167 -78.7667 36° Northeast 121 139 1,300 -720 Descending Buffalo TRACON
11:25 42.9333 -78.7167 48° Northeast  Level FlightAware Approximate
11:32 42.9404 -78.7306 48° Northeast  Level Estimated